Location: Franzen
(48.6167°N, 15.3833°E)
Time: 12:54:21
(UTC+00:00)

DMSP B5D2-2 - Pass Details

Date: 22 April 2021
Orbit: 790 x 805 km, 98.3° (Epoch: 16 May)

Event Time Altitude Azimuth Distance (km) Brightness Sun altitude
Rises 18:40:01 0° 12° (NNE) 3,311 7.5 -6.8°
Reaches altitude 10° 18:42:21 10° 11° (NNE) 2,379 6.8 -7.2°
Maximum altitude 18:47:36 77° 287° (WNW) 825 4.3 -7.9°
Drops below altitude 10° 18:52:51 10° 202° (SSW) 2,372 6.5 -8.7°
Sets 18:55:10 0° 201° (SSW) 3,300 7.2 -9.0°
